This demonstration page uses our WeatherBlox Daily Observations layout. Learn more.

39.92423, -83.80882

Hourly Observations for September 10, 2017

Temp ( °F °C ) Dew Point ( °F °C ) Humidity (%) Winds ( mph kmh ) Pressure ( in mb ) Visibility ( mi km ) Precip ( " mm )
12:56 am 00:56 Clear 50 10 47 8.3 89 89 NE 7 11 30.39 1029 10 16.09344 0 0
1:56 am 01:56 Clear 48 8.9 46 7.8 93 93 ENE 5 7 30.39 1029 10 16.09344 0 0
2:56 am 02:56 Clear 47 8.3 46 7.8 97 97 ENE 3 6 30.39 1029 10 16.09344 0 0
3:56 am 03:56 Clear 47 8.3 45 7.2 93 93 ENE 5 7 30.39 1029 10 16.09344 0 0
4:56 am 04:56 Clear 47 8.3 44 6.7 90 90 NE 6 9 30.39 1029 10 16.09344 0 0
5:56 am 05:56 Clear 45 7.2 43 6.1 93 93 ENE 6 9 30.39 1029 10 16.09344 0 0
6:56 am 06:56 Clear 43 6.1 41 5 93 93 ENE 3 6 30.39 1029 10 16.09344 0 0
7:56 am 07:56 Sunny 44 6.7 43 6.1 96 96 NE 3 6 30.42 1030 10 16.09344 0 0
8:56 am 08:56 Sunny 50 10 48 8.9 93 93 E 5 7 30.45 1031 10 16.09344 0 0
9:56 am 09:56 Sunny 56 13.3 49 9.4 77 77 E 6 9 30.45 1031 10 16.09344 0 0
10:56 am 10:56 Sunny 61 16.1 49 9.4 65 65 E 6 9 30.45 1031 10 16.09344 0 0
11:56 am 11:56 Sunny 64 17.8 49 9.4 58 58 E 8 13 30.42 1030 10 16.09344 0 0
12:56 pm 12:56 Sunny 66 18.9 47 8.3 50 50 E 9 15 30.42 1030 10 16.09344 0 0
1:56 pm 13:56 Sunny 68 20 44 6.7 42 42 E 10 17 30.39 1029 10 16.09344 0 0
2:56 pm 14:56 Sunny 68 20 45 7.2 44 44 N 7 11 30.39 1029 10 16.09344 0 0
3:56 pm 15:56 Sunny 69 20.6 44 6.7 41 41 ENE 12 19 30.36 1028 10 16.09344 0 0
4:56 pm 16:56 Sunny 69 20.6 45 7.2 42 42 ENE 9 15 30.36 1028 10 16.09344 0 0
5:56 pm 17:56 Sunny 68 20 45 7.2 44 44 E 9 15 30.36 1028 10 16.09344 0 0
6:56 pm 18:56 Sunny 64 17.8 48 8.9 56 56 ENE 7 11 30.36 1028 10 16.09344 0 0
7:56 pm 19:56 Clear 59 15 47 8.3 64 64 NE 7 11 30.36 1028 10 16.09344 0 0
8:56 pm 20:56 Clear 54 12.2 47 8.3 77 77 E 5 7 30.36 1028 10 16.09344 0 0
9:56 pm 21:56 Clear 53 11.7 47 8.3 80 80 E 5 7 30.36 1028 10 16.09344 0 0
10:56 pm 22:56 Clear 50 10 46 7.8 86 86 ENE 7 11 30.36 1028 10 16.09344 0 0
11:56 pm 23:56 Clear 50 10 46 7.8 86 86 ENE 7 11 30.33 1027 10 16.09344 0 0

Powered by AerisWeather